Location: ????????
(55.5667°N, 37.5833°E)
Time: 14:33:09
(UTC+00:00)

Okean 1-7 Rocket - Pass Details

Date: 14 April 2026
Orbit: 610 x 643 km, 82.5° (Epoch: 17 May)

Event Time Altitude Azimuth Distance (km) Brightness Sun altitude
Rises 22:58:00 0° 347° (NNW) 2,892 7.8 -22.2°
Reaches altitude 10° 23:00:14 10° 347° (NNW) 1,981 6.8 -22.1°
Maximum altitude 23:04:37 82° 260° (W) 625 3.4 -21.8°
Enters shadow 23:05:11 67° 189° (S) 669 3.4 -21.8°
